Regional Weather Roundup
Issued by NWS Austin/San Antonio, TX

Home | Current Version | Previous Version | Text Only | Print | Product List | Glossary On
Versions: 1 2 3 4 5 6 7 8 9 10 11 12 13 14 15 16 17 18 19 20 21 22 23 24 25 26 27 28 29 30 31 32 33 34 35 36 37 38 39 40 41 42 43 44 45 46 47 48 49 50
000
ASUS44 KEWX 230702
RWREWX
SOUTH TEXAS REGIONAL WEATHER ROUNDUP
NATIONAL WEATHER SERVICE AUSTIN/SAN ANTONIO TX
200 AM CDT WED AUG 23 2017

NOTE: "FAIR" INDICATED FEW OR NO CLOUDS BELOW 12,000 FEET WITH NO
SIGNIFICANT WEATHER AND/OR OBSTRUCTIONS TO VISIBILITY.

* - THESE STATIONS ARE NOT NWS OR FAA STATIONS...AND ARE NOT SUBJECT
    TO NWS AND FAA QUALITY CONTROL.

TXZ171-172-183>190-230800-
TEXAS HILL COUNTRY AND EDWARDS PLATEAU

CITY           SKY/WX    TMP DP  RH WIND       PRES   REMARKS
JUNCTION       PTCLDY    80  63  55 CALM      30.06F
*LLANO         CLEAR     73  66  78 CALM      30.05F
BURNET         CLEAR     80  68  66 S5        30.05F
*HORSESHOE BAY CLEAR     80  68  67 S6        30.02F
*KERRVILLE     CLEAR     76  71  82 CALM      30.06F
*FREDERICKSBRG CLEAR     73  63  69 CALM      30.06F
*ROCKSPRINGS   NOT AVBL
*BOERNE STAGE  CLEAR     73  64  73 S3        30.06S
*CASTROVILLE   CLEAR     79  65  62 SE3       30.03S
HONDO          CLEAR     77  68  73 NE3       30.02F
*UVALDE        CLEAR     77  66  68 CALM      30.03S
DEL RIO        CLEAR     84  65  52 E9        30.00R
LAUGHLIN AFB   PTCLDY    82  66  57 SE8       30.01R
CARRIZO SPRGS  CLEAR     82  68  61 SE8       29.99S
*EAGLE PASS    SUNNY     84  66  54 SE7       30.00S
$$

TXZ173-191>194-202-209-217>225-228-230800-
CENTRAL AND SOUTH CENTRAL TEXAS

CITY           SKY/WX    TMP DP  RH WIND       PRES   REMARKS
GEORGETOWN     CLEAR     83  70  64 S5        30.03S
AUSTIN/BERGSTM CLEAR     78  70  76 CALM      30.01S
AUSTIN/MABRY   CLEAR     82  69  64 VRB3      30.02F
*AUSTIN/EXEC   CLEAR     77  70  78 CALM      30.02S
*LAGO VISTA    CLEAR     81  69  67 S6        30.04F
SAN MARCOS     CLEAR     78  71  79 S7        30.02F
NEW BRAUNFELS  CLEAR     75  69  81 SW5       30.01R
RANDOLPH AFB   CLEAR     78  72  83 CALM      30.02R
PT SAN ANTONIO CLEAR     77  70  78 SE6       30.00S
SAN ANTONIO    CLEAR     79  69  71 S5        30.03S
STINSON FIELD  CLEAR     79  70  74 CALM      30.00S
*LA GRANGE     CLEAR     78  74  86 CALM      29.99S
*GIDDINGS      CLEAR     78  71  78 CALM      30.02S
*GONZALES      CLEAR     78  74  86 S6        30.00S
$$

TXZ163>164-176>182-195>201-210>213-226-227-235-230800-
SOUTHEAST TEXAS

CITY           SKY/WX    TMP DP  RH WIND       PRES   REMARKS
COLLEGE STN    CLEAR     80  70  71 S5        30.00S
*BRYAN         CLEAR     79  69  70 S5        30.02S
*CALDWELL      NOT AVBL
*CROCKETT      CLEAR     75  72  88 CALM      30.04S
*BRENHAM       CLEAR     80  71  74 CALM      30.01S
HUNTSVILLE     CLEAR     81  71  71 S3        30.01S
CONROE         CLEAR     75  73  93 CALM      30.01S
HOUSTON BUSH   PTCLDY    81  74  79 S3        29.99S
HOUSTON HOBBY  PTCLDY    81  74  79 CALM      29.98F
*HOUSTON SW AP CLEAR     73  72  95 CALM      30.00F
PEARLAND       CLEAR     79  73  82 CALM      30.00F
HOUSTON HOOKS  CLEAR     77  74  90 CALM      30.00S
ELLINGTON FLD  PTCLDY    81  73  78 CALM      30.00F
SUGAR LAND     CLEAR     76  73  91 CALM      29.99S
*HOUSTON EXEC  CLEAR     75  72  88 CALM      30.01S
*CLEVELAND MUN CLEAR     75  74  96 CALM      30.01S
*WHARTON       CLEAR     73  70  89 CALM      30.00F
*COLUMBUS      FAIR      75  72  88 CALM      30.01F
*EAGLE LAKE    SUNNY     78  75  92 SW3       29.99F
$$

TXZ214>216-236>238-230800-
THE UPPER TEXAS COAST

CITY           SKY/WX    TMP DP  RH WIND       PRES   REMARKS
*ORANGE        MOCLDY    77  76  99 CALM      30.01F
PORT ARTHUR    MOCLDY    77  75  93 CALM      29.99F
GALVESTON      MOCLDY    83  78  85 S7        29.99F HX  93
ANGLETON       CLEAR     76  74  93 CALM      29.99F
*BAY CITY      CLEAR     75  74  96 CALM      29.99S
PALACIOS       CLEAR     79  75  87 S3        29.98F
$$

TXZ229>234-239>247-230800-
TEXAS COASTAL BEND AND RIO GRANDE PLAINS

CITY           SKY/WX    TMP DP  RH WIND       PRES   REMARKS
VICTORIA       CLEAR     76  73  91 CALM      29.99F
*BEEVILLE      CLEAR    N/A N/A N/A SE5       29.99F
ROCKPORT       PTCLDY    83  75  77 CALM      29.97F HX  90
*PORT ARANSAS  CLEAR     82  76  81 SE6       29.97F
*PORT LAVACA   CLEAR     75  71  87 CALM      29.99F
*INGLESIDE     CLEAR     80  76  88 MISG      29.97F
CORPUS CHRISTI PTCLDY    75  74  96 CALM      29.98S
CORPUS NAS     CLEAR     82  77  84 SE6       29.97S HX  90
*ROBSTOWN      CLEAR     79  73  82 CALM      29.99S
ALICE          CLEAR     77  73  87 CALM      29.98F
KINGSVILLE NAS CLEAR     79  77  94 CALM      29.98F
COTULLA        CLEAR     80  68  66 SE5       29.99F
*FAITH RANCH   PTCLDY    84  68  58 SE8       30.00R
LAREDO         CLEAR     82  71  69 SE10      30.00S
$$

TXZ248>255-230800-
DEEP SOUTH TEXAS

CITY           SKY/WX    TMP DP  RH WIND       PRES   REMARKS
BROWNSVILLE    CLEAR     78  77  96 CALM      29.97S
PORT ISABEL    CLEAR     81  77  88 CALM      29.96F
*SOUTH PADRE   NOT AVBL
HARLINGEN      CLEAR     78  75  90 CALM      29.96F
*HEBBRONVILLE  CLEAR     75  70  83 CALM      30.02S
MCALLEN        CLEAR     81  73  76 CALM      29.98F
*WESLACO       CLEAR     80  74  83 CALM      29.97F
FALFURRIAS     PTCLDY    77  73  86 CALM      29.98F
EDINBURG       CLEAR     78  73  83 CALM      29.99S
*ZAPATA        CLEAR     82  70  68 SE6       29.99S
$$

TXZ213>215-236>238-242>244-246-247-251-254-255-230800-
CMAN STATIONS

STATION/POSITION TIME  TEMP    WIND        PRES    WAVE
                       AIR SEA DIR/SP/G            HT/PER
                 (UTC) (F)     (DEG/KT/KT) (MB)    (FT/S)
SABINE PASS      0630   83 90  190/  3/  3 1017.2
SEA RIM ST PARK  0600   84     170/  3/  4 1016.5
NORTH JETTY/GLS  0630      89  160/  5/  6 1015.2
EAGLE POINT      0630   82 89  280/  3/  4 1015.9
MORGANS POINT    0630   84 88  220/  3/  4 1015.7
MISSION/ARANSAS  0600          140/ 10     1016.0
PORT O`CONNOR    0630   84     170/  5/  7 1014.9
PORT ARANSAS     0600   83 85  120/  6/  7 1015.3
MALAQUITE BEACH  0630   83 88  110/  7/  8 1014.4
BAFFIN BAY       0630   83 88              1015.1
PORT ISABEL      0630   83 85              1014.8
$$



USA.gov is the U.S. government's official web portal to all federal, state and local government web resources and services.